EW6756 Weather Reports


Display with metric or nautical units.
time (UTC)temp
F
wind
direction
speed
MPH
gust
MPH
rain 1hr
in
rain 24hr
in
rain mn
in
humidity
%
barometer
mb
20260906074003 60 74 0.0 4.0 0.00 0.14 0.00 86 1024.5
20260906073504 60 68 0.0 4.0 0.00 0.14 0.00 86 1024.5
20260906073003 59 49 0.0 4.0 0.00 0.14 0.00 87 1024.4
20260906072503 59 90 0.0 1.0 0.00 0.14 0.00 87 1024.4
20260905163003 60 187 2.0 7.0 0.00 0.30 0.20 87 1017.4
20260905162720 60 182 2.0 7.0 0.00 0.30 0.20 88 1017.2
20260905162006 60 148 2.0 7.0 0.02 0.30 0.20 88 1017.3
20260905161503 60 148 1.0 5.0 0.02 0.30 0.20 88 1017.2
20260905161003 60 202 1.0 7.0 0.02 0.30 0.20 87 1017.1
20260905160503 60 227 1.0 7.0 0.02 0.30 0.20 87 1017.0
20260905160005 60 202 2.0 7.0 0.02 0.30 0.20 87 1017.0
20260905155505 61 191 1.0 11.0 0.02 0.30 0.20 87 1017.0
20260905155219 61 184 2.0 11.0 0.02 0.30 0.20 87 1016.8
20260905154716 61 149 2.0 11.0 0.02 0.30 0.20 87 1016.8
20260905154005 61 169 3.0 8.0 0.02 0.30 0.20 87 1016.8
20260905153503 62 195 2.0 8.0 0.02 0.30 0.20 86 1016.6
20260905153005 62 163 2.0 10.0 0.02 0.30 0.20 85 1016.3
20260905152503 62 183 3.0 10.0 0.00 0.28 0.18 84 1016.7
20260905152006 62 187 2.0 18.0 0.00 0.28 0.18 85 1016.1
20260905151505 62 212 3.0 18.0 0.00 0.28 0.18 85 1016.2
20260905151005 62 210 3.0 18.0 0.00 0.28 0.18 85 1016.1
20260905150505 62 190 3.0 11.0 0.00 0.28 0.18 86 1016.1
20260905150003 62 276 3.0 10.0 0.00 0.28 0.18 85 1015.9
20260905145718 62 263 3.0 10.0 0.00 0.28 0.18 85 1016.0
20260905145003 62 164 2.0 11.0 0.00 0.28 0.18 85 1015.8
20260905144503 62 208 3.0 14.0 0.00 0.28 0.18 84 1016.0
20260905144004 62 219 4.0 16.0 0.00 0.28 0.18 83 1015.7
20260905143503 62 300 3.0 16.0 0.00 0.28 0.18 83 1015.6
20260905075003 60 184 2.0 8.0 0.00 0.65 0.06 95 1011.2
20260905074504 60 231 2.0 8.0 0.00 0.66 0.06 95 1011.1